User: anonymous   Login
Location: Hohenfelde
(53.8441°N, 9.6220°E)
Time: 19:13:20
(UTC+00:00)
Language:

DELTA 2 DEB (DPAF) - Orbit

View from above orbital plane
View from above orbital plane
View from above satellite
View from above satellite

Ground track
Ground track

The orbit data is extracted from the following two-line orbital elements,

1 29110U 06016D   20263.52991025 +.00000409 +00000-0 +68264-4 0  9995
2 29110 098.3415 032.3728 0002094 302.3716 189.8534 14.75421798771671
Epoch (UTC): 19 September 2020 12:43:04
Eccentricity: 0.0002094
inclination: 98.3415°
perigee height: 642 km
apogee height: 645 km
right ascension of ascending node: 32.3728°
argument of perigee: 302.3716°
revolutions per day: 14.75421798
mean anomaly at epoch: 189.8534°
orbit number at epoch: 77167

The dashed part of the orbit path shows where the satellite is in the earth's shadow,  

DLR